sat.trackr.live / text

‹ back to catalog

STARLINK-35834

NORAD 66570 · 2025-268P

PAYLOAD ACTIVE UNKNOWN

§ Identity

Operator
Country
US
Launch date
2025-11-21
Launch site
AFETR
Launch vehicle
Mass (kg)
RCS (m²)

Purposes: comms

External: N2YO · Heavens-Above · Gunter

§ Orbital elements

Epoch: 2026-09-20T11:15:45.594144Z

Period
94.27 min
Inclination
43.0017°
Eccentricity
0.0001489
Mean motion
15.27587244 rev/d
Perigee alt
482.0 km
Apogee alt
484.0 km
Semi-major
6,861.2 km
B*
3.2183e-4
RAAN
327.4975°
Arg perigee
279.1631°
Mean anomaly
80.9052°
Rev number
4,774

§ Raw data

STARLINK-358341 66570U 25268P   26263.46927771  .00008606  00000+0  32183-3 0  99982 66570  43.0017 327.4975 0001489 279.1631  80.9052 15.27587244 47740

JSON: /api/v1/satellites/66570 · /tle

For live sub-satellite position, see the globe view (requires WebGL).

§ Visibility from observer

Set your observer location to see the next 7 days of passes ≥ 10°. The values pass through the URL so the page stays shareable.

No JS? Fill the form by hand. The geolocation button needs JavaScript.